www.srh.weather.gov   
NOAA logo - Click to go to the NOAA homepage   NWS logo
Regional Weather Roundup
Enter Your "City, ST" or zip code   
Current Version              Previous Version:    01  02  03  04  05  06  07  08  09  10  11  12  13  14  15  16  17  18  19  20  21  22  23  24  25  26  27  28  29  30  
   31  32  33  34  35  36  37  38  39  40  41  42  43  44  45  46  47  48  49  50  51  52  53  54  55  56  57  58  59  60  
[Printable]
386
ASUS43 KFGF 181331
RWRFGF
PRAIRIE TO PINES  WEATHER ROUNDUP
NATIONAL WEATHER SERVICE EASTERN NORTH DAKOTA/GRAND FORKS ND
700 AM CST THU DEC 18 2014

 **SATELLITE DATA USED TO AUGMENT SKY COVER AT AUTOMATED STATIONS**
 *****  WEATHER ACROSS EASTERN NORTH DAKOTA  *****

CITY           SKY/WX    TMP DP  RH WIND       PRES   REMARKS
GRAND FORKS    MOCLDY     4   1  88 S3        30.25F
GRAND FRKS AFB PTCLDY     5   4  98 SE1       30.24F
DEVILS LAKE    CLOUDY    12   1  62 SE9       30.13F WCI   0
FARGO          MOCLDY     9   5  84 SE7       30.25F WCI  -2
WAHPETON ARPT  PTSUNNY    7   3  85 CALM      30.26S
$$

 ***** WEATHER ACROSS CENTRAL AND WESTERN NORTH DAKOTA  *****

CITY           SKY/WX    TMP DP  RH WIND       PRES   REMARKS
BISMARCK       CLOUDY    16  15  96 SE10      30.10S WCI   4
MINOT          MOCLDY    14   9  80 SE7       30.06S WCI   4
JAMESTOWN      CLOUDY    15  11  83 SE8       30.15S WCI   4
MINOT AFB      MOCLDY    10  10 100 SE7       30.06S WCI   0
GARRISON         N/A     18  15  88 S9        30.04F WCI   7
WILLISTON      CLOUDY    21  17  84 SE3       30.00S
DICKINSON      CLOUDY    21  17  84 S10       29.95S WCI  10
HETTINGER      CLOUDY    21  19  92 S6        29.98S WCI  13
$$

 *****  OTHER AIRPORT OBSERVATIONS IN OUR AREA  *****

CITY           SKY/WX    TMP DP  RH WIND       PRES   REMARKS
WALHALLA         N/A      0   0 100 E3        30.22F
GRAFTON AIRPOR NOT AVBL
VALLEY CITY AR CLOUDY    10  10 100 SE3       30.18F
CANDO          CLOUDY    10   9  92 SE8       30.14F WCI  -1
CAVALIER APRT  FAIR       1   0  92 S6        30.24S WCI -10
GWINNER        PTSUNNY   16  16 100 MISG      30.21S
SHEYENNE NWR     N/A     12   9  87 SE3       29.95S
ROLLA          CLOUDY     3   1  92 S6        30.11S WCI  -8
 ***** THE ABOVE OBSERVATIONS ARE NON NWS ARE NOT QUALITY
       CONTROLLED AND MAY MIS-REPORT RAIN FOR SNOW...
$$

  *****  WEATHER ACROSS NORTHERN MINNESOTA  *****

CITY           SKY/WX    TMP DP  RH WIND       PRES   REMARKS
FLAG ISLAND    MOCLDY     7   3  85 SE5       30.27S WCI  -2
WARROAD        PTCLDY     5   1  85 E3        30.26F
ROSEAU         FAIR       7   1  78 CALM      30.25F
HALLOCK        PTCLDY     7   3  85 SE5       30.25S WCI  -2
THF RVR FALLS  PTCLDY     9   7  92 SE3       30.25S
BAUDETTE       MOCLDY     4   0  83 E6        30.27S WCI  -7
WASKISH        PTCLDY     1   0  92 CALM      30.27S
CROOKSTON      PTCLDY     7   3  85 S5        30.27S WCI  -2
STEPHEN NDAWN    N/A      5   1  85 SE3         N/A
GREENBUSH NDAW   N/A      7   3  85 E3          N/A
$$
  *****  WEATHER ACROSS CENTRAL AND WEST MINNESOTA  *****

CITY           SKY/WX    TMP DP  RH WIND       PRES   REMARKS
FOSSTON        PTCLDY     5   1  85 CALM      30.24F
BEMIDJI        MOCLDY     3   0  86 CALM      30.25S
PARK RAPIDS    MOCLDY     4   1  88 CALM      30.24S
ELBOW LAKE     FAIR       8   6  89 E7        30.24F WCI  -3
WADENA         PTCLDY     1  -2  85 CALM      30.24F
DETROIT LAKES  PTCLDY    10   9  92 SE7       30.23F WCI   0
MOORHEAD       PTCLDY    10   9  92 SE3       30.26S
FERGUS FALLS   MOCLDY     9   5  85 SE7       30.28F WCI  -3
MORRIS MN      MOCLDY     7   3  85 SE5       30.25S WCI  -2
STAPLES        PTCLDY     3   1  92 CALM      30.26F
$$
  *****  WEATHER ELSEWHERE ACROSS MINNESOTA  *****

CITY           SKY/WX    TMP DP  RH WIND       PRES   REMARKS
DULUTH         FLURRIES  19  15  84 CALM      30.26S
INTRNTL FALLS  PTCLDY     0  -4  83 CALM      30.29F
ELY            CLOUDY     9   7  92 CALM      30.28F
CLOQUET        CLOUDY    18  14  86 NW3       30.27F
WHEATON        CLOUDY     5   1  85 CALM      30.27S
BRAINERD       CLOUDY     5   2  87 CALM      30.27F
HIBBING        CLOUDY    16  11  80 CALM      30.28R
ALEXANDRIA     MOCLDY     8   5  87 E7        30.24F WCI  -3
SAINT CLOUD    MOCLDY    10   4  76 CALM      30.28S
MINNEAPOLIS    CLOUDY    14  11  87 CALM      30.30S
$$

  *****  WEATHER ACROSS SOUTH DAKOTA  *****

CITY           SKY/WX    TMP DP  RH WIND       PRES   REMARKS
SIOUX FALLS    CLOUDY    19  15  84 E6        30.22R WCI  11
BROOKINGS      NOT AVBL
WATERTOWN      CLOUDY    17  11  77 S6        30.18R WCI   9
HURON          CLOUDY    19  15  84 SE6       30.19S WCI  11
SISSETON         N/A     11   8  88 S8        30.23S WCI  -1
ABERDEEN       CLOUDY    18  13  80 S7        30.19F WCI   9
MITCHELL       CLOUDY    21  17  84 SE7       30.21R WCI  12
PIERRE         CLOUDY    21  19  92 SE7       30.10S WCI  12
MOBRIDGE       CLOUDY    20  17  88 SE8       30.07S WCI  10
RAPID CITY     CLOUDY    22  20  92 S7        30.00R FOG     WCI  13
$$

  *****  SOME WEATHER IN NEARBY STATES *****

CITY           SKY/WX    TMP DP  RH WIND       PRES   REMARKS
GLASGOW MT     CLOUDY    24  21  88 E6        29.95R WCI  17
GREAT FALLS MT CLOUDY    34  26  72 S15       29.89S WCI  24
CHEYENNE WY    PTCLDY    21  13  71 W8        29.98R WCI  11
SCOTTSBLUFF NE FOG        8   5  87 NW7       30.03R VSB 1/2 WCI  -3
OMAHA NE       FLURRIES  27  22  81 SE5       30.25R WCI  22
DES MOINES IA  CLOUDY    23  16  74 SE5       30.29R WCI  17
DAVENPORT IA   MOCLDY    17  13  84 CALM      30.31R
CHICAGO IL     PTCLDY    19  13  77 W3        30.27S
EAU CLAIRE WI  CLOUDY    22  18  85 NE3       30.27S
LA CROSSE WI   CLOUDY    22  15  75 CALM      30.30R
$$

  *****  SOME NATIONAL WEATHER *****

CITY           SKY/WX    TMP DP  RH WIND       PRES   REMARKS
LA GUARDIA NY  PTCLDY    38  23  55 NW20G29   29.96R
RALEIGH NC     MOCLDY    34  27  75 CALM      30.16R
ATLANTA GA     MOCLDY    36  30  79 NW9       30.17R
NEW ORLEANS LA CLOUDY    53  47  79 E7        30.16S
OKLAHOMA CITY  DRIZZLE   39  37  93 SE5       30.13R FOG
ALBUQUERQUE NM CLEAR     31  27  85 S3        30.13R
SALT LAKE CITY MOCLDY    31  28  89 NE6       30.09R
LOS ANGELES CA PTCLDY    50  44  80 CALM      30.13R
BOISE ID       CLOUDY    36  32  85 NE3       30.06S
SEATTLE WA     CLOUDY    45  42  89 SE5       29.94F
$$

*** WEATHER ACROSS MANITOBA...SASKATCHEWAN AND ONTARIO ***
                ***ONTARIO***

CITY           SKY/WX    TMP DP  RH WIND       PRES   REMARKS
GERALDTON      CLEAR     -9 -13  84 W3        30.31S
THUNDER BAY    CLEAR     -6  -9  84 SW6       30.39S WCI -18
SIOUX LOOKOUT  CLEAR    -15 -20  76 S3        30.31S
TORONTO        CLOUDY    30  25  80 NW18      30.09R WCI  18
BIG TROUT LK   CLEAR      0  -4  85 W5        30.23S WCI -10
PICKLE LAKE    CLEAR     -6 -11  77 S5        30.29S WCI -17
DRYDEN         CLEAR     -6  -9  84 SE5       30.28F WCI -17
KENORA         PTCLDY     3   0  85 SE7       30.26F WCI  -9
$$
                *** MANITOBA***

CITY           SKY/WX    TMP DP  RH WIND       PRES   REMARKS
BRANDON        PTCLDY    -6  -9  84 E6        30.14F WCI -18
DAUPHIN        CLEAR      3   0  85 S5        30.12F WCI  -6
ISLAND LAKE    CLEAR     -2 -11  65 SE5       30.21S WCI -12
PILOT MOUND      N/A      3   1  92 SE10        N/A  WCI -12
THE PAS        FLURRIES   7   5  92 SE5       30.05S WCI  -2
THOMPSON       FLURRIES   0  -4  85 S6        30.07S WCI -12
WINNIPEG       PTCLDY     5   1  85 S5        30.25  WCI  -4
LYNN LAKE      FLURRIES  12  10  92 S7        29.93S WCI   2
CHURCHILL      CLEAR      5   1  85 W12       30.01  WCI -11
GILLAM         CLEAR      1  -4  78 SW10      30.09S WCI -14
$$
                ***SASKATCHEWAN***

CITY           SKY/WX    TMP DP  RH WIND       PRES   REMARKS
ESTEVAN        CLOUDY    16  12  86 E8        30.01S WCI   5
KINDERSLEY     FOG       18  16  93 W7        29.85S VSB 3/8 WCI   8
LLOYDMINSTER   CLOUDY    18  16  93 W3        29.84S FOG
PRINCE ALBERT  FLURRIES  18  16  93 SW8       29.95S WCI   7
REGINA         CLOUDY    19  18  93 S10       29.97S WCI   8
YORKTON        FLURRIES  16  12  86 S8        30.02F WCI   5
N. BATTLEFORD  CLOUDY    19  19 100 SE5       29.88F WCI  13
LA RONGE       FLURRIES  16  14  93 SW3       29.93F
SASKATOON      FRZ DRZL  21  21 100 S8        29.92S FOG     WCI  12
SWIFT CURRENT  FOG       21  19  93 SW12      29.84F VSB 3/4 WCI   9
$$
NOTE: THESE ARE AUTOMATED STATIONS WITH LIMITED QUALITY CONTROL
      "FAIR" INDICATES FEW OR NO CLOUDS BELOW 12,000 FEET WITH NO
      SIGNIFICANT WEATHER AND/OR OBSTRUCTIONS TO VISIBILITY.
      SKY/WX - SKY CONDITION AND SIGNIFICANT WEATHER.
      TMP - AIR TEMPERATURE.    DP   - DEWPOINT TEMPERATURE.
      RH  - RELATIVE HUMIDITY.  PRES - PRESSURE.
      HX  - HEAT INDEX.         WCI  - WIND CHILL INDEX.
$



National Weather Service
Disclaimer
Last Modified: August 31, 2005
Privacy Policy